Regional Weather Roundup
Issued by NWS

Home | Current Version | Previous Version | Text Only | Print | Product List | Glossary On
Versions: 1 2 3 4 5 6 7 8 9 10 11 12 13 14 15 16 17 18 19 20 21 22 23 24 25 26 27 28 29 30 31 32 33 34 35 36 37 38 39 40 41 42 43 44 45 46 47 48 49 50
000
ASUS43 KMKX 070110
RWRWI

WISCONSIN REGIONAL WEATHER ROUNDUP
NATIONAL WEATHER SERVICE MILWAUKEE/SULLIVAN WI
700 PM CST FRI MAR 06 2015

NOTE: "FAIR" INDICATES FEW OR NO CLOUDS BELOW 12,000 FEET WITH NO
SIGNIFICANT WEATHER AND/OR OBSTRUCTIONS TO VISIBILITY.

WIZ001-002-006>008-014>016-023>028-070200-
NORTHWEST WISCONSIN

CITY           SKY/WX    TMP DP  RH WIND       PRES   REMARKS
SUPERIOR ARPT  CLEAR     29  10  44 W7        30.00S WCI  22
ASHLAND        CLEAR     26  10  50 SW5       29.99R WCI  20
HAYWARD        CLEAR     27  10  49 SW3       29.99R
SIREN          PTCLDY    29  12  49 W5        30.03S WCI  24
CUMBERLAND     PTCLDY    23  10  58 W5        30.02R WCI  17
RICE LAKE      PTCLDY    27  14  57 SW3       30.04R
CHETEK         PTCLDY    28  15  57 SW3       30.03R
LADYSMITH      CLEAR     26  13  57 SW5       30.03R WCI  21
EAU CLAIRE     FAIR      29  15  56 NW3       30.04R
MENOMONIE      MOCLDY    31  17  56 NW6       30.05R WCI  25
NEW RICHMOND   MOCLDY    26  15  62 W5        30.05R WCI  20
OSCEOLA        MOCLDY    27  16  62 SW5       30.08R WCI  22
$$

WIZ003>005-009-010-017-018-070200-
NORTH CENTRAL WISCONSIN

CITY           SKY/WX    TMP DP  RH WIND       PRES   REMARKS
MANITOWISH WTR CLEAR     14   6  69 W3        29.94R
ARBOR VITAE    CLEAR     25  10  53 SW5       29.95R WCI  19
WOODRUFF       CLEAR     25  10  53 SW5       29.95R WCI  19
RHINELANDER    CLEAR     23  10  57 W9        29.97R WCI  13
EAGLE RIVER    FAIR      21   7  54 W3        29.94R
LAND O LAKES   CLEAR     21   8  58 CALM      29.94R
PHILLIPS       PTCLDY    23  10  58 SW5       29.97S WCI  17
TOMAHAWK       CLEAR     24  11  55 CALM      29.99R
MEDFORD        CLEAR     24  13  64 W7        30.00R WCI  16
MERRILL        CLEAR     22  12  64 W6        30.00R WCI  14
$$

WIZ029-030-035-036-043>047-070200-
CENTRAL WISCONSIN

CITY           SKY/WX    TMP DP  RH WIND       PRES   REMARKS
WAUSAU         CLEAR     24  13  62 W8        30.00R WCI  15
MOSINEE        CLEAR     27  16  63 W9        30.02R WCI  17
MARSHFIELD     PTCLDY    27  14  58 W7        30.02R WCI  19
STEVENS POINT  CLEAR     28  14  56 W6        30.03R WCI  21
WAUPACA        CLEAR     27  14  57 SW7       30.03S WCI  20
WAUTOMA        CLEAR     27  15  60 SW7       30.06R WCI  20
WISC RAPIDS    PTCLDY    29  14  53 W6        30.05R WCI  23
CAMP DOUGLAS   PTCLDY    28  20  74 SW6       30.06R WCI  21
$$

WIZ011>013-019>022-031-037>040-048>050-070200-
NORTHEAST WISCONSIN

CITY           SKY/WX    TMP DP  RH WIND       PRES   REMARKS
ANTIGO         CLEAR     21  12  67 W12       29.98R WCI   9
SHAWANO        CLEAR     30  14  52 CALM      30.02R
OCONTO         CLEAR     27  14  59 SW5       30.02R WCI  21
STURGEON BAY   CLEAR     23  12  63 SW12G18   30.03R WCI  12
GREEN BAY      CLEAR     23  15  71 SW7       30.03R WCI  15
MANITOWOC      CLEAR     24  16  71 SW13      30.06R WCI  12
APPLETON       PTCLDY    25  12  58 SW10      30.04R WCI  15
CLINTONVILLE   CLEAR     28  14  54 SW5       30.02R WCI  23
OSHKOSH        CLEAR     25  15  66 SW9       30.05R WCI  15
$$

WIZ032>034-041-042-053>061-070200-
SOUTHWEST WISCONSIN

CITY           SKY/WX    TMP DP  RH WIND       PRES   REMARKS
LA CROSSE      MOCLDY    32  22  66 S6        30.07S WCI  26
SPARTA         PTCLDY    29  19  64 CALM      30.07S
VIROQUA        MOCLDY    28  21  75 SW9       30.05S WCI  19
BOSCOBEL       PTCLDY    29  19  66 SW3       30.10S
PRAIRIE DU CHI MOCLDY    33  21  62 CALM      30.09S
PLATTEVILLE    PTCLDY    25  19  76 S6        30.10R WCI  18
$$

WIZ056-057-062-063-064-067-068-070200-
SOUTH CENTRAL WISCONSIN

CITY           SKY/WX    TMP DP  RH WIND       PRES   REMARKS
REEDSBURG      CLEAR     28  18  66 SW8       30.07S WCI  20
BARABOO/DELLS  CLEAR     26  17  67 SW3       30.07R
LONE ROCK      CLEAR     24  16  71 CALM      30.10S
MINERAL POINT  PTCLDY    30  19  64 SW6       30.08S WCI  24
MADISON        PTCLDY    26  15  63 VRB3      30.10R
MIDDLETON      CLEAR     29  17  61 SW6       30.09S WCI  23
WATERTOWN      CLEAR     24  17  74 SW7       30.10R WCI  16
MONROE         CLEAR     28  21  74 SW14      30.09R WCI  17
JANESVILLE     CLEAR     27  18  69 SW9       30.11S WCI  17
$$

WIZ051-052-058>065-066-070>072-070200-
SOUTHEAST WISCONSIN

CITY           SKY/WX    TMP DP  RH WIND       PRES   REMARKS
MILWAUKEE      PTCLDY    25  16  68 SW15      30.11R WCI  13
WAUKESHA       CLEAR     25  16  68 SW15      30.10S WCI  12
MILWAUKEE/TIMM CLEAR     25  16  68 SW12      30.11R WCI  14
RACINE         CLEAR     25  16  68 SW14      30.14R WCI  13
BURLINGTON     CLEAR     22  16  77 SW14      30.11S WCI  10
KENOSHA        CLEAR     26  17  68 SW16      30.12S WCI  14
FOND DU LAC    CLEAR     24  14  65 SW12      30.06R WCI  13
SHEBOYGAN      CLEAR     23  14  68 SW12      30.08R WCI  12
WEST BEND      CLEAR     25  14  63 SW10      30.08R WCI  15
JUNEAU         CLEAR     21  15  76 S9        30.09S WCI  11
$$

LSZ147-162-070200-
LAKE SUPERIOR

STATION/POSITION TIME  TEMP    WIND        PRES    WAVE
                       AIR SEA DIR/SP/G            HT/PER
                 (UTC) (F)     (DEG/KT/KT) (MB)    (FT/S)
DEVILS ISLAND    0100   29     240/ 12/ 13 1015.7R
PORT WING        0040   31     230/  6/  9 1015.6R
SAXON HARBOR     0000   31      CALM  /  6 1015.2
$$

LMZ867-665-643>646-070200-
LAKE MICHIGAN

STATION/POSITION TIME  TEMP    WIND        PRES    WAVE
                       AIR SEA DIR/SP/G            HT/PER
                 (UTC) (F)     (DEG/KT/KT) (MB)    (FT/S)
NORTHPORT PIER   0000   26     200/  3/ 12 1015.2R
SISTER BAY       0013   26     210/ 14/ 19   N/A
KEWAUNEE LAKESHO 0000   27     230/ 10/ 16 1016.0R
SHEBOYGAN LAKESH 0100   26     230/ 11/ 14 1020.2R
PORT WASHINGTON  0040   27     250/ 13/ 18 1019.6R
MILWAUKEE LAKESH 0000   27     230/ 16/ 21   N/A
KENOSHA   LAKESH 0100   26     210/  5/ 12 1020.7R
$$

TC  - TEMPERATURE IN CELSIUS
VSB - VISIBILITY IN STATUTE MILES
WCI - WIND CHILL INDEX
HX  - HEAT INDEX




USA.gov is the U.S. government's official web portal to all federal, state and local government web resources and services.